Flag for Spain Weather past 2 weeks in Alicante, Spain

Now
75 °F

Scattered clouds.


Feels Like: 77 °F
Forecast: 70 / 79 °F
Wind: 14 mph from North

Location: Alicante / El Altet

Current Time: Sep 4, 2015 at 9:15:29 PM

Latest Report: Sep 4, 2015 at 8:30 PM


Visibility: N/A

Pressure: 29.92 "Hg

Humidity: 69%

Dew point: 64 °F

Location of AlicanteLocation

Historic Weather in Alicante — Graph

°F

Alicante temperature yesterday

Maximum temperature yesterday: 90 °F (at 2:30 PM)
Minimum temperature yesterday: 73 °F (at 5:30 AM)
Average temperature yesterday: 81 °F

Past Weeks' High & Low Weather Summary

 TemperatureHumidityPressure
High93 °F (Aug 23, 2:00 PM)94% (Aug 31, 11:30 PM)30.15 "Hg (Aug 31, 11:30 PM)
Low70 °F (Aug 27, 7:30 AM)23% (Aug 24, 2:00 PM)29.74 "Hg (Aug 23, 6:30 PM)
Average81 °F66%29.98 "Hg
* Reported Aug 20 8:00 PM — Sep 4 8:00 PM, Alicante, Weather by CustomWeather, © 2015

Note: Actual official high and low records may vary slightly from our data, if they occured in-between our weather recording intervals... More about our weather records

Advertising

Alicante weather history for previous 24 hours

 ConditionsComfort  
Time TempWeatherWind HumidityBarometerVisibility
8:00 PM
Fri, Sep 4
79 °FScattered clouds.15 mph65%29.89 "HgN/A
7:30 PM79 °FPartly sunny.9 mph61%29.89 "HgN/A
7:00 PM81 °FScattered clouds.12 mph58%29.89 "HgN/A
6:30 PM81 °FPassing clouds.7 mph58%29.89 "HgN/A
6:00 PM81 °FPassing clouds.6 mph58%29.86 "HgN/A
5:30 PM82 °FPassing clouds.7 mph55%29.86 "HgN/A
5:00 PM82 °FPassing clouds.8 mph55%29.86 "HgN/A
4:30 PM82 °FPassing clouds.8 mph55%29.86 "HgN/A
4:00 PM82 °FPassing clouds.7 mph55%29.86 "HgN/A
3:30 PM82 °FPassing clouds.8 mph55%29.86 "HgN/A
3:00 PM82 °FPassing clouds.9 mph55%29.86 "HgN/A
2:30 PM82 °FPassing clouds.8 mph55%29.89 "HgN/A
2:00 PM84 °FPassing clouds.9 mph51%29.89 "HgN/A
1:30 PM82 °FPassing clouds.6 mph58%29.89 "HgN/A
1:00 PM82 °FPassing clouds.5 mph58%29.92 "HgN/A
12:30 PM81 °FPassing clouds.6 mph62%29.89 "HgN/A
12:00 PM81 °FPassing clouds.6 mph62%29.89 "HgN/A
11:30 AM81 °FPassing clouds.7 mph62%29.89 "HgN/A
11:00 AM82 °FScattered clouds.3 mph58%29.89 "HgN/A
10:30 AM81 °FScattered clouds.1 mph58%29.89 "HgN/A
10:00 AM81 °FPassing clouds.1 mph58%29.89 "HgN/A
9:30 AM81 °FScattered clouds.No wind58%29.89 "HgN/A
9:00 AM77 °FPassing clouds.1 mph69%29.89 "HgN/A
8:30 AM75 °FScattered clouds.1 mph74%29.89 "HgN/A
8:00 AM73 °FPassing clouds.1 mph74%29.89 "HgN/A
7:30 AM73 °FPassing clouds.1 mph78%29.89 "HgN/A
7:00 AM73 °FPassing clouds.3 mph74%29.89 "HgN/A
6:30 AM75 °FPassing clouds.1 mph69%29.86 "HgN/A
6:00 AM75 °FPassing clouds.3 mph69%29.89 "HgN/A
5:30 AM75 °FPassing clouds.2 mph74%29.89 "HgN/A
5:00 AM75 °FPassing clouds.2 mph74%29.89 "HgN/A
4:30 AM77 °FPartly cloudy.No wind69%29.89 "HgN/A
4:00 AM77 °FPartly cloudy.No wind69%29.89 "HgN/A
3:30 AM77 °FPartly cloudy.1 mph69%29.89 "HgN/A
3:00 AM77 °FPartly cloudy.3 mph69%29.89 "HgN/A
2:30 AM77 °FPartly cloudy.3 mph69%29.92 "HgN/A
2:00 AM77 °FPartly cloudy.5 mph69%29.92 "HgN/A
1:30 AM77 °FPassing clouds.3 mph69%29.92 "HgN/A
1:00 AM77 °FClear.5 mph69%29.92 "Hg10 mi
12:30 AM77 °FClear.2 mph69%29.89 "Hg10 mi
11:00 PM
Thu, Sep 3
79 °FClear.2 mph61%29.89 "Hg10 mi
10:30 PM79 °FClear.3 mph61%29.89 "Hg10 mi
10:00 PM79 °FClear.2 mph61%29.89 "Hg10 mi
9:30 PM79 °FPassing clouds.3 mph61%29.86 "HgN/A
9:00 PM79 °FPassing clouds.3 mph65%29.86 "HgN/A
Weather by CustomWeather, © 2015

See weather overviewHow to use our weather pages